[[{"header":{"parameterUnit":"m.s-1","parameterCategory":1,"la1":30.2991,"la2":30.254,"lo1":-89.0895,"lo2":-89.0444,"dy":0.0017,"dx":0.0017,"nx":28,"ny":28,"refTime":"2024-06-22T21:00:00:Z","depth":0,"parameterNumber":2,"parameterNumberName":"U-component_of_WINDS"},"data":[0,0,0,0,0,0,0,0,0,0,0,0,0,0,0,0,0,0,0,0,0,0,0,0,0,0,0,0,0,0,0,0,0,0,0,0,0,0,0,0,0,0,0,0,0,0,0,0,0,0,0,0,0,0,0,0,0,0,2.2539,2.2538,0,2.247,2.2469,2.2468,2.2358,2.2356,2.2354,2.2352,2.2284,2.2284,2.2284,0,0,0,0,0,0,0,0,0,0,0,0,0,2.2576,2.2576,2.2539,2.2538,2.2537,2.247,2.2469,2.2468,2.2358,2.2356,2.2353,2.2351,2.2284,2.2284,2.2284,0,0,0,0,0,0,0,0,0,0,0,0,0,2.2539,2.2576,2.2539,2.2474,2.2468,2.247,2.2469,2.2468,2.2359,2.2356,2.2353,2.235,2.2284,2.2284,2.2284,2.2344,0,0,2.2284,2.2284,0,0,0,0,0,0,0,0,2.2541,2.2538,2.2485,2.2479,2.2472,2.2419,2.2457,2.2426,2.236,2.24,2.2352,2.2349,2.2331,2.2327,2.2321,2.2341,2.2338,2.2284,2.2284,2.2284,2.2284,0,0,0,0,0,0,0,2.2544,2.254,2.2512,2.2484,2.2476,2.2449,2.244,2.245,2.2384,2.2397,2.2388,2.2382,2.2327,2.2321,2.2319,2.2337,2.2284,2.2284,2.2284,2.2284,2.2399,2.2402,0,0,0,0,0,0,2.2556,2.2543,2.2514,2.251,2.25,2.245,2.2441,2.2439,2.2383,2.2372,2.2384,2.2377,2.2323,2.2319,2.2316,2.238,2.2284,2.2284,2.2284,2.2396,2.24,2.2403,0,0,0,0,0,0,2.2557,2.2554,2.2517,2.2524,2.2517,2.2453,2.2452,2.2439,2.2433,2.2374,2.2361,2.239,2.232,2.2316,2.2337,2.2376,2.2284,2.2284,2.2393,2.2397,2.2401,2.2511,0,0,0,0,0,0,2.2559,2.2555,2.2578,2.2525,2.2517,2.2539,2.2455,2.244,2.2433,2.2423,2.2376,2.2366,2.2317,2.2337,2.2337,2.2374,2.2284,2.2389,2.2395,2.24,2.2504,2.2519,2.2532,0,0,0,0,0,2.256,2.2613,2.258,2.2577,2.2544,2.2542,2.2537,2.248,2.2437,2.2459,2.242,2.2367,2.2372,2.234,2.2339,2.2377,2.2386,2.2393,2.24,2.2497,2.2516,2.2531,0,0,0,0,0,0,2.2674,2.2605,2.2567,2.2605,2.258,2.2523,2.2549,2.2502,2.2489,2.248,2.241,2.24,2.243,2.2406,2.2372,2.2431,2.2371,2.2378,2.2445,2.2462,2.2476,2.2481,2.2284,0,0,0,0,0,2.2703,2.2707,2.2647,2.2685,2.2674,2.2614,2.2611,2.2569,2.2541,2.253,2.2493,2.2468,2.2463,2.2462,2.2455,2.25,2.2487,2.2525,2.2539,2.2551,2.2557,2.2576,2.2592,2.2425,2.2425,2.2425,0,0,2.2764,2.2727,2.2734,2.2707,2.2683,2.2687,2.2606,2.2616,2.2618,2.2531,2.2548,2.252,2.2487,2.252,2.2532,2.2501,2.26,2.256,2.257,2.2569,2.2585,2.26,2.2615,2.243,2.2429,2.2428,0,0,2.2876,2.285,2.2877,2.2853,2.2817,2.2776,2.2783,2.2733,2.271,2.2725,2.2659,2.2661,2.2656,2.2634,2.2623,2.2723,2.2673,2.2723,2.2796,2.2815,2.2828,2.284,2.2873,2.2886,2.273,2.273,2.2731,0,2.2956,2.296,2.2897,2.2909,2.2899,2.2819,2.2845,2.2826,2.279,2.2784,2.2749,2.2737,2.271,2.2735,2.2759,2.2753,2.2757,2.2728,2.2832,2.2842,2.2852,2.2883,2.2896,2.2736,2.2736,2.2735,2.2735,0,2.3059,2.3063,2.309,2.3054,2.3047,2.3067,2.3005,2.3005,2.2963,2.2926,2.2941,2.2905,2.2887,2.289,2.285,2.2908,2.2889,2.2844,2.2782,2.2875,2.2902,2.2914,2.2745,2.2743,2.2741,2.274,0,0,2.3242,2.3169,2.318,2.3161,2.3114,2.3115,2.3131,2.3112,2.3112,2.3089,2.3099,2.3094,2.3051,2.3038,2.2994,2.3012,2.309,2.2963,2.2961,2.2986,2.3149,2.3181,2.3196,2.3057,2.3059,2.3061,2.315,0,2.3343,2.3364,2.3306,2.3341,2.3342,2.3265,2.3277,2.325,2.3215,2.321,2.3172,2.3169,2.3113,2.3104,2.3118,2.3078,2.3121,2.3071,2.3064,2.3064,2.3072,2.3211,2.3246,2.3333,2.3161,2.3163,2.3164,0,2.3464,2.3444,2.3479,2.3426,2.3425,2.3437,2.3414,2.3411,2.3377,2.335,2.3334,2.3283,2.3292,2.3234,2.3246,2.3212,2.3206,2.3186,2.3188,2.3183,2.3119,2.3209,2.336,2.3372,2.3181,2.318,2.3179,0,2.359,2.3573,2.3591,2.3578,2.3518,2.3527,2.3503,2.3466,2.3457,2.3437,2.343,2.3412,2.3402,2.3389,2.3334,2.3296,2.3351,2.3288,2.3328,2.3329,2.3342,2.3341,2.3492,2.3342,2.3342,2.3341,2.3341,0,2.3707,2.3731,2.3646,2.3657,2.368,2.3613,2.3638,2.3606,2.3573,2.3575,2.3509,2.3513,2.344,2.3435,2.3392,2.3407,2.3404,2.3381,2.3369,2.3386,2.3389,2.338,2.3371,2.3345,2.3344,2.3343,2.3343,0,2.3852,2.3796,2.381,2.3751,2.3736,2.3756,2.3705,2.3712,2.3672,2.3676,2.3673,2.361,2.3601,2.3544,2.3524,2.3494,2.3524,2.3501,2.3535,2.3526,2.3568,2.3564,2.3716,2.3731,2.3574,2.3576,2.3577,0,2.393,2.3945,2.3887,2.3883,2.3861,2.3856,2.3846,2.3781,2.3773,2.3734,2.3745,2.373,2.3714,2.3703,2.3656,2.3639,2.3613,2.3668,2.361,2.3626,2.3611,2.361,2.361,2.368,2.3682,2.3684,2.3685,0,2.4072,2.4043,2.4031,2.4008,2.3998,2.3977,2.3953,2.3954,2.3881,2.3875,2.3864,2.3852,2.3828,2.3814,2.3788,2.3762,2.3711,2.3703,2.3711,2.3727,2.3745,2.3733,2.3566,2.37,2.3699,2.3697,2.3697,2.3696,2.4183,2.4192,2.4152,2.414,2.4114,2.4092,2.4094,2.4054,2.4043,2.4017,2.398,2.3973,2.3936,2.3895,2.3874,2.3867,2.3838,2.385,2.3852,2.3856,2.3863,2.3748,2.3863,2.3862,2.3862,2.3861,2.3861,0,2.432,2.4289,2.4279,2.4245,2.4235,2.4187,2.4157,2.4151,2.4146,2.4116,2.4101,2.4086,2.4071,2.4022,2.4001,2.4006,2.3981,2.4002,2.4,2.3994,2.3892,2.3886,2.4022,2.4022,2.4022,2.4022,2.4022,2.4022,2.439,2.4401,2.4367,2.4365,2.4334,2.4326,2.4312,2.4291,2.4265,2.4252,2.4238,2.4206,2.4167,2.4143,2.4126,2.4112,2.4106,2.4135,2.4113,2.4018,2.4002,2.3987,2.3981,2.4135,2.4135,2.4215,2.4216,2.4216]},{"header":{"parameterUnit":"m.s-1","parameterCategory":1,"la1":30.2991,"la2":30.254,"lo1":-89.0895,"lo2":-89.0444,"dy":0.0017,"dx":0.0017,"nx":28,"ny":28,"refTime":"2024-06-22T21:00:00:Z","depth":0,"parameterNumber":3,"parameterNumberName":"V-component_of_WINDS"},"data":[0,0,0,0,0,0,0,0,0,0,0,0,0,0,0,0,0,0,0,0,0,0,0,0,0,0,0,0,0,0,0,0,0,0,0,0,0,0,0,0,0,0,0,0,0,0,0,0,0,0,0,0,0,0,0,0,0,0,3.9046,3.9048,0,3.9191,3.9192,3.9194,3.9213,3.9212,3.921,3.9209,3.9349,3.9354,3.9358,0,0,0,0,0,0,0,0,0,0,0,0,0,3.8776,3.8781,3.9046,3.9048,3.905,3.9191,3.9193,3.9194,3.9213,3.9212,3.921,3.9209,3.9347,3.9353,3.9359,0,0,0,0,0,0,0,0,0,0,0,0,0,3.8904,3.8783,3.9045,3.9076,3.908,3.919,3.9193,3.9195,3.9214,3.9212,3.921,3.9208,3.9345,3.9352,3.936,3.9446,0,0,3.9383,3.9386,0,0,0,0,0,0,0,0,3.8897,3.8914,3.907,3.9074,3.9079,3.9182,3.9149,3.9279,3.9214,3.9163,3.9209,3.9207,3.9294,3.9306,3.9337,3.9453,3.9459,3.9383,3.9388,3.9391,3.9393,0,0,0,0,0,0,0,3.8888,3.8908,3.9103,3.9072,3.9078,3.908,3.9096,3.9173,3.9238,3.9167,3.9169,3.9186,3.9296,3.933,3.9341,3.9461,3.9383,3.939,3.9394,3.9397,3.9653,3.9655,0,0,0,0,0,0,3.8875,3.89,3.9098,3.9107,3.8981,3.9086,3.9104,3.9151,3.9237,3.9249,3.9188,3.9187,3.9318,3.9332,3.9345,3.9452,3.9391,3.9398,3.9402,3.9651,3.9654,3.9656,0,0,0,0,0,0,3.8869,3.8892,3.9092,3.9005,3.903,3.9093,3.9145,3.9155,3.9189,3.9253,3.9264,3.9211,3.9317,3.9335,3.9421,3.9457,3.9401,3.9408,3.9648,3.9652,3.9655,3.9666,0,0,0,0,0,0,3.8861,3.889,3.8926,3.9005,3.9035,3.9169,3.9148,3.9159,3.9202,3.9202,3.9277,3.9288,3.9317,3.941,3.9429,3.9466,3.9414,3.9645,3.965,3.9654,3.9663,3.9669,3.9675,0,0,0,0,0,3.8852,3.8922,3.8928,3.8952,3.9082,3.9171,3.9188,3.9222,3.9205,3.924,3.9281,3.9285,3.945,3.9419,3.944,3.948,3.9643,3.9648,3.9653,3.966,3.9668,3.9675,0,0,0,0,0,0,3.8842,3.8933,3.894,3.9039,3.9098,3.9174,3.922,3.923,3.9292,3.9289,3.9326,3.9343,3.9427,3.9462,3.9426,3.9568,3.9545,3.9554,3.9542,3.9551,3.9557,3.9546,3.942,0,0,0,0,0,3.8852,3.892,3.8994,3.9074,3.9103,3.9156,3.9196,3.9218,3.9279,3.9303,3.9351,3.9407,3.9471,3.9513,3.9576,3.9668,3.9683,3.9705,3.9712,3.9716,3.9724,3.9774,3.9784,3.9673,3.9673,3.9673,0,0,3.8872,3.893,3.897,3.9074,3.9121,3.9188,3.9177,3.9248,3.9297,3.9313,3.9398,3.9435,3.95,3.9589,3.9631,3.9621,3.9758,3.9723,3.9726,3.9732,3.978,3.9791,3.98,3.9677,3.9676,3.9676,0,0,3.8943,3.8995,3.9067,3.9115,3.9189,3.9224,3.924,3.9316,3.9342,3.9428,3.9441,3.9498,3.9609,3.9655,3.9692,3.978,3.9785,3.9799,3.9831,3.9879,3.9887,3.9895,3.9925,3.9936,3.9806,3.9806,3.9806,0,3.8958,3.9063,3.9101,3.9173,3.9216,3.9237,3.9308,3.9352,3.9441,3.9469,3.9457,3.9596,3.9642,3.9741,3.9763,3.9793,3.9811,3.979,3.9884,3.9892,3.99,3.9929,3.994,3.9807,3.9807,3.9807,3.9807,0,3.9077,3.9148,3.9197,3.9286,3.9335,3.9405,3.9452,3.9496,3.9513,3.9548,3.9635,3.969,3.9764,3.9789,3.9805,3.9891,3.9882,3.9877,3.9854,3.9911,3.9939,3.995,3.9809,3.9809,3.9808,3.9808,0,0,3.9146,3.9255,3.9272,3.9312,3.9395,3.9449,3.9519,3.9595,3.9631,3.9691,3.975,3.9843,3.9838,3.9881,3.9902,3.9944,4.0008,3.9933,3.9935,3.9945,4.0104,4.0107,4.012,4.0013,4.0015,4.0017,4.0098,0,3.9226,3.9355,3.9392,3.95,3.9565,3.9585,3.9645,3.97,3.9735,3.9793,3.9829,3.9894,3.9884,3.991,3.9952,3.9992,4.0041,3.9986,4.0064,4.0067,4.0047,4.0134,4.0138,4.0213,4.0109,4.0111,4.0113,0,3.9336,3.9402,3.9517,3.9591,3.9619,3.9674,3.9745,3.9801,3.9863,3.9885,3.9933,3.995,4.0021,3.9995,4.0091,4.0054,4.0087,4.0111,4.0115,4.0123,4.0093,4.0144,4.0237,4.0248,4.013,4.0129,4.0127,0,3.9374,3.949,3.9575,3.9608,3.9696,3.9734,3.9771,3.9832,3.9874,3.9935,3.9963,4.003,4.0066,4.0117,4.015,4.0129,4.0244,4.0221,4.0261,4.026,4.0284,4.0282,4.0384,4.0307,4.0307,4.0307,4.0307,0,3.9459,3.9528,3.9593,3.9644,3.9722,3.9761,3.9836,3.9874,3.9927,3.9984,4.0004,4.0056,4.0098,4.0155,4.0182,4.0257,4.0273,4.0291,4.0297,4.0289,4.0287,4.0311,4.0306,4.031,4.0309,4.0309,4.0308,0,3.9514,3.956,3.9653,3.9729,3.975,3.9803,3.9867,3.9916,3.9951,4.0023,4.0041,4.0095,4.0163,4.0203,4.0288,4.0305,4.0389,4.0392,4.0369,4.0371,4.0409,4.0405,4.053,4.0547,4.046,4.046,4.0461,0,3.9565,3.962,3.9702,3.9743,3.9782,3.9848,3.9892,3.9932,3.9976,4.0051,4.009,4.016,4.0219,4.0326,4.0371,4.0435,4.044,4.048,4.045,4.044,4.044,4.0436,4.0441,4.0484,4.0485,4.0486,4.0486,0,3.965,3.967,3.9735,3.9808,3.986,3.9918,3.9976,4.0007,4.0056,4.0105,4.0177,4.0222,4.031,4.0378,4.0447,4.0482,4.0491,4.0496,4.0508,4.05,4.0484,4.0492,4.0382,4.0492,4.0492,4.0491,4.0491,4.0491,3.9704,3.9753,3.9819,3.989,3.9938,3.9991,4.0041,4.0083,4.0145,4.0222,4.024,4.0315,4.0373,4.0467,4.0504,4.0561,4.0554,4.0572,4.0577,4.0581,4.0582,4.0476,4.0573,4.0573,4.0573,4.0573,4.0573,0,3.979,3.9833,3.9898,3.9979,4.0034,4.0042,4.0105,4.015,4.0217,4.0272,4.033,4.0411,4.0477,4.0527,4.0594,4.063,4.0636,4.0646,4.0643,4.0651,4.0585,4.0567,4.064,4.064,4.064,4.064,4.064,4.064,3.984,3.9924,3.9951,4.0057,4.0099,4.0175,4.0211,4.0259,4.0304,4.0395,4.0451,4.0484,4.0537,4.0608,4.0668,4.0681,4.0704,4.0713,4.0726,4.0663,4.0656,4.0649,4.0632,4.0718,4.0719,4.0788,4.0789,4.0789]}]]